CW0622 Weather Reports


Display with metric or nautical units.
time (UTC)temp
F
wind
direction
speed
MPH
gust
MPH
rain 1hr
in
rain 24hr
in
rain mn
in
humidity
%
barometer
mb
20260506080105 48 14 0.0 0.0 0.00 0.00 0.00 98 1019.2
20260506073046 48 0 0.0 0.0 0.00 0.00 0.00 96 1018.2
20260506073039 48 14 0.0 0.0 0.00 0.00 0.00 97 1018.9
20260506072020 48 14 0.0 0.0 0.00 0.00 0.00 97 1018.7
20260506071541 48 0 0.0 0.0 0.00 0.00 0.00 96 1018.2
20260506071027 48 14 0.0 0.0 0.00 0.00 0.00 97 1018.7
20260506070223 48 14 0.0 0.0 0.00 0.00 0.00 97 1018.6
20260506062040 48 14 0.0 0.0 0.00 0.00 0.00 97 1018.4
20260506061537 48 0 0.0 0.0 0.00 0.00 0.00 96 1017.9
20260506061021 48 14 0.0 0.0 0.00 0.00 0.00 97 1018.2
20260506051033 49 14 0.0 2.0 0.00 0.00 0.00 97 1018.2
20260506045014 49 14 0.0 0.0 0.00 0.00 0.00 97 1018.0
20260506044618 48 0 0.0 0.0 0.00 0.00 0.00 95 1017.5
20260506044042 49 14 0.0 0.0 0.00 0.00 0.00 97 1017.8
20260506043040 48 14 0.0 0.0 0.00 0.00 0.00 95 1017.5
20260506043026 49 14 0.0 2.0 0.00 0.00 0.00 97 1017.8
20260506042030 49 14 0.0 0.0 0.00 0.00 0.00 97 1017.5
20260506041538 48 0 0.0 0.0 0.00 0.00 0.00 95 1017.2
20260506041017 49 14 0.0 0.0 0.00 0.00 0.00 96 1017.3
20260506040053 49 14 1.0 3.0 0.00 0.01 0.00 97 1017.1
20260506040039 49 0 0.0 3.0 0.00 0.00 0.00 95 1016.8
20260506035022 49 14 0.0 0.0 0.00 0.01 0.00 96 1017.1
20260506034602 49 0 0.0 0.0 0.00 0.01 0.00 95 1016.7
20260506034033 49 14 0.0 0.0 0.00 0.01 0.00 96 1016.9
20260506033037 49 0 0.0 0.0 0.00 0.01 0.00 95 1016.5
20260506033017 49 14 0.0 0.0 0.00 0.01 0.00 96 1016.8
20260506032044 49 14 0.0 2.0 0.00 0.01 0.00 96 1016.8
20260506031540 49 0 0.0 2.0 0.00 0.01 0.00 94 1016.4
20260506031032 49 14 0.0 0.0 0.00 0.01 0.00 96 1016.6
20260506030049 49 14 0.0 0.0 0.00 0.01 0.00 96 1016.5
20260506030035 49 0 0.0 0.0 0.00 0.01 0.00 94 1016.3
20260506025018 49 14 0.0 0.0 0.00 0.01 0.00 96 1016.4
20260506024541 49 0 0.0 0.0 0.00 0.01 0.00 94 1016.2
20260506024028 50 14 0.0 0.0 0.00 0.01 0.00 95 1016.3
20260506023059 49 0 0.0 0.0 0.00 0.01 0.00 94 1016.1
20260506023035 50 14 0.0 0.0 0.00 0.01 0.00 95 1016.3
20260506022015 50 14 0.0 0.0 0.00 0.01 0.00 95 1016.3
20260506021536 50 0 0.0 2.0 0.00 0.01 0.00 93 1015.9
20260506021025 50 14 0.0 2.0 0.00 0.01 0.00 95 1016.2
20260506020038 50 14 0.0 2.0 0.00 0.01 0.00 94 1016.1
20260506020036 50 0 0.0 2.0 0.00 0.01 0.00 93 1015.9
20260506015057 50 14 0.0 0.0 0.00 0.01 0.00 95 1016.0
20260506014536 50 0 0.0 3.0 0.00 0.01 0.00 93 1015.8
20260506014018 50 14 0.0 3.0 0.00 0.01 0.00 95 1016.1
20260506013041 50 0 0.0 3.0 0.00 0.01 0.00 93 1015.8
20260506013024 50 14 0.0 3.0 0.00 0.01 0.00 94 1016.1
20260506012032 50 14 0.0 3.0 0.00 0.01 0.00 94 1016.2
20260506011532 50 0 0.0 3.0 0.00 0.01 0.00 92 1015.8
20260506011019 51 30 0.0 0.0 0.00 0.01 0.00 93 1016.1
20260506010042 51 0 0.0 3.0 0.00 0.01 0.00 92 1015.9
20260506010032 51 30 0.0 3.0 0.00 0.01 0.00 94 1016.0
20260506005026 51 28 0.0 2.0 0.00 0.01 0.00 94 1016.0
20260506004557 50 0 0.0 2.0 0.00 0.01 0.00 91 1015.7
20260506004033 51 28 0.0 0.0 0.00 0.01 0.00 94 1015.9
20260506003045 51 0 0.0 1.0 0.00 0.01 0.00 91 1015.7
20260506003017 51 28 0.0 1.0 0.00 0.01 0.00 93 1015.9
20260506002022 52 28 0.0 0.0 0.00 0.01 0.00 93 1015.7
20260506001541 51 0 0.0 2.0 0.00 0.01 0.00 91 1015.5
20260506001032 52 28 0.0 2.0 0.00 0.01 0.00 92 1015.9
20260506000040 52 0 0.0 4.0 0.00 0.01 0.00 90 1015.6
20260506000029 52 28 1.0 4.0 0.00 0.01 0.00 91 1015.8
20260505235022 53 271 0.0 3.0 0.00 0.01 0.00 91 1015.7
20260505234557 52 0 0.0 4.0 0.00 0.01 0.00 90 1015.6
20260505234029 52 308 0.0 4.0 0.00 0.01 0.00 90 1015.7
20260505233039 53 0 0.0 4.0 0.00 0.01 0.00 89 1015.6
20260505233015 54 320 0.0 4.0 0.00 0.01 0.00 90 1015.8
20260505232022 55 248 1.0 3.0 0.00 0.01 0.00 87 1015.7
20260505231537 55 0 0.0 0.0 0.00 0.01 0.00 88 1015.6
20260505231030 55 237 0.0 1.0 0.00 0.01 0.00 88 1015.8
20260505230049 55 237 1.0 3.0 0.00 0.01 0.00 89 1015.7
20260505230041 54 237 0.0 3.0 0.00 0.01 0.00 87 1015.7
20260505225015 55 237 0.0 3.0 0.00 0.01 0.00 87 1015.8
20260505224539 54 237 0.0 8.0 0.00 0.01 0.00 86 1015.6
20260505224023 55 237 0.0 8.0 0.00 0.01 0.00 87 1015.9
20260505223039 55 260 0.0 3.0 0.00 0.01 0.00 86 1015.9
20260505223029 56 260 1.0 3.0 0.00 0.01 0.00 88 1015.9
20260505222013 56 250 0.0 5.0 0.00 0.01 0.00 88 1016.0
20260505221539 55 250 1.0 4.0 0.00 0.01 0.00 87 1015.8
20260505221018 55 292 0.0 3.0 0.00 0.01 0.00 88 1016.1
20260505220056 56 295 0.0 5.0 0.00 0.01 0.00 87 1016.2
20260505220054 56 0 0.0 6.0 0.00 0.01 0.00 85 1016.0
20260505215022 56 271 0.0 3.0 0.00 0.01 0.00 86 1016.2
20260505214540 55 271 0.0 3.0 0.00 0.01 0.00 86 1015.9
20260505214046 55 271 0.0 3.0 0.00 0.01 0.00 89 1016.0
20260505213052 55 268 0.0 4.0 0.00 0.01 0.00 88 1016.1
20260505213036 55 0 0.0 4.0 0.00 0.01 0.00 87 1015.9
20260505212055 55 254 0.0 0.0 0.00 0.01 0.00 88 1016.1
20260505211544 54 0 0.0 3.0 0.00 0.01 0.00 87 1015.8
20260505211020 55 231 1.0 3.0 0.00 0.01 0.00 90 1016.0
20260505210051 55 217 1.0 4.0 0.00 0.02 0.00 89 1016.1
20260505210039 55 0 0.0 4.0 0.00 0.01 0.00 88 1015.9
20260505205022 55 87 0.0 2.0 0.00 0.02 0.00 90 1016.0
20260505204539 54 0 0.0 2.0 0.00 0.03 0.00 89 1016.0
20260505204029 55 87 0.0 0.0 0.00 0.02 0.00 90 1016.1
20260505203037 54 0 0.0 0.0 0.00 0.03 0.00 87 1015.9
20260505203034 54 87 0.0 0.0 0.00 0.02 0.00 89 1016.2
20260505202018 55 87 0.0 0.0 0.00 0.02 0.00 90 1016.3
20260505201537 54 0 0.0 0.0 0.00 0.03 0.00 90 1016.1
20260505201025 54 87 0.0 1.0 0.00 0.02 0.00 89 1016.2
20260505200039 54 0 0.0 2.0 0.00 0.03 0.00 87 1016.1
20260505200035 54 87 0.0 2.0 0.00 0.05 0.00 88 1016.3
20260505195023 55 88 0.0 1.0 0.00 0.05 0.00 91 1016.2
20260505194544 54 0 0.0 0.0 0.00 0.05 0.00 89 1016.0
20260505194051 54 88 0.0 0.0 0.00 0.05 0.00 91 1016.2
20260505193044 53 0 0.0 1.0 0.00 0.05 0.00 91 1016.0
20260505193030 53 355 0.0 1.0 0.00 0.05 0.00 92 1016.2
20260505192031 53 355 0.0 0.0 0.00 0.05 0.00 92 1016.3
20260505191550 52 0 0.0 3.0 0.00 0.05 0.00 91 1016.0
20260505191017 53 355 1.0 3.0 0.00 0.05 0.00 93 1016.2
20260505190240 52 355 0.0 1.0 0.00 0.05 0.00 94 1016.1
20260505190040 51 0 0.0 2.0 0.00 0.05 0.00 91 1015.9
20260505190035 51 355 0.0 2.0 0.00 0.05 0.00 92 1016.1
20260505185023 52 355 0.0 0.0 0.00 0.05 0.00 94 1016.0
20260505184543 51 0 0.0 1.0 0.00 0.05 0.00 92 1015.9
20260505184028 51 269 0.0 1.0 0.00 0.05 0.00 93 1016.0
20260505183038 51 0 0.0 3.0 0.00 0.05 0.00 93 1015.8
20260505183027 52 269 0.0 2.0 0.00 0.05 0.00 95 1016.0
20260505182021 51 269 0.0 2.0 0.00 0.05 0.00 95 1015.9
20260505181538 51 0 0.0 0.0 0.00 0.05 0.00 94 1015.7
20260505181025 51 268 0.0 0.0 0.00 0.05 0.00 95 1015.8
20260505180047 51 0 0.0 2.0 0.00 0.05 0.00 94 1015.7
20260505180043 51 268 0.0 0.0 0.00 0.05 0.00 95 1015.8
20260505175029 51 5 0.0 2.0 0.00 0.05 0.00 95 1015.7
20260505174544 51 0 0.0 0.0 0.00 0.05 0.00 94 1015.4
20260505174015 51 5 0.0 0.0 0.00 0.05 0.00 95 1015.6
20260505173036 50 0 0.0 2.0 0.00 0.05 0.00 95 1015.3
20260505173016 51 5 0.0 2.0 0.00 0.05 0.00 96 1015.6
20260505172039 51 5 0.0 0.0 0.00 0.05 0.00 97 1015.5
20260505171534 50 0 0.0 2.0 0.00 0.05 0.00 95 1015.3
20260505171018 50 5 0.0 2.0 0.00 0.05 0.00 97 1015.5
20260505170048 49 5 1.0 4.0 0.00 0.05 0.00 96 1015.3
20260505170031 50 5 1.0 4.0 0.00 0.05 0.00 97 1015.6
20260505165019 50 360 1.0 3.0 0.00 0.05 0.00 98 1015.5
20260505164540 49 0 1.0 3.0 0.00 0.05 0.00 96 1015.3
20260505164027 50 338 0.0 2.0 0.00 0.05 0.00 98 1015.4
20260505163039 49 0 1.0 3.0 0.00 0.05 0.00 97 1015.0
20260505163033 50 335 1.0 3.0 0.00 0.05 0.00 98 1015.3
20260505162036 49 336 0.0 3.0 0.00 0.05 0.00 98 1015.2
20260505161535 48 0 0.0 2.0 0.00 0.05 0.00 96 1015.0
20260505161017 49 335 0.0 3.0 0.00 0.05 0.00 98 1015.2
20260505153051 48 0 0.0 2.0 0.00 0.05 0.00 97 1014.7
20260505153013 48 285 0.0 2.0 0.00 0.05 0.00 98 1015.1
20260505152017 48 298 0.0 2.0 0.00 0.05 0.00 98 1015.1
20260505151545 47 0 0.0 2.0 0.00 0.05 0.00 97 1014.7
20260505151024 48 298 0.0 2.0 0.00 0.05 0.00 98 1015.0
20260505125028 47 69 0.0 3.0 0.00 0.05 0.00 98 1014.6
20260505124535 46 0 0.0 3.0 0.00 0.05 0.00 96 1014.0
20260505124035 47 38 0.0 0.0 0.00 0.05 0.00 98 1014.4
20260505123058 46 0 0.0 2.0 0.00 0.05 0.00 96 1014.0
20260505123015 47 38 0.0 2.0 0.00 0.05 0.00 98 1014.5
20260505122039 47 38 0.0 0.0 0.00 0.05 0.00 98 1014.5
20260505121536 46 0 0.0 0.0 0.00 0.05 0.00 96 1013.9
20260505121021 47 38 0.0 0.0 0.00 0.05 0.00 98 1014.3
20260505120042 46 0 0.0 1.0 0.00 0.05 0.00 96 1013.9
20260505120033 47 38 0.0 1.0 0.00 0.05 0.00 98 1014.3
20260505115046 47 38 0.0 2.0 0.00 0.05 0.00 98 1014.3
20260505114556 46 0 0.0 2.0 0.00 0.05 0.00 96 1013.7
20260505114038 47 38 1.0 2.0 0.00 0.05 0.00 98 1014.3
20260505113040 46 0 0.0 0.0 0.00 0.05 0.00 96 1013.9
20260505113018 47 38 0.0 0.0 0.00 0.05 0.00 98 1014.4
20260505112026 47 38 0.0 0.0 0.00 0.05 0.00 98 1014.5
20260505111604 46 0 0.0 0.0 0.00 0.05 0.00 96 1013.9
20260505111035 47 38 0.0 0.0 0.00 0.05 0.00 98 1014.5
20260505102016 47 21 0.0 2.0 0.00 0.05 0.00 98 1014.0
20260505101541 46 0 0.0 0.0 0.00 0.05 0.00 96 1013.5
20260505101021 47 21 0.0 0.0 0.00 0.05 0.00 98 1014.1
20260505100038 47 0 0.0 0.0 0.00 0.05 0.00 96 1013.7
20260505100032 47 21 0.0 0.0 0.00 0.05 0.00 98 1014.1
20260505095043 47 21 0.0 0.0 0.00 0.05 0.00 98 1014.5
20260505094539 47 0 0.0 0.0 0.00 0.05 0.00 96 1014.1
20260505094030 47 21 0.0 0.0 0.00 0.05 0.00 98 1014.5
20260505093038 47 0 0.0 2.0 0.00 0.05 0.00 96 1014.0
20260505093020 47 21 0.0 2.0 0.00 0.05 0.00 98 1014.4
20260505092024 47 21 1.0 8.0 0.00 0.05 0.00 98 1014.7
20260505091537 47 21 1.0 8.0 0.00 0.05 0.00 96 1014.1
20260505091028 47 59 1.0 7.0 0.00 0.05 0.00 98 1014.9
20260505090107 47 311 0.0 1.0 0.00 0.05 0.00 98 1015.1
20260505090042 47 0 0.0 1.0 0.00 0.05 0.00 96 1014.5
20260505085101 47 311 0.0 3.0 0.00 0.05 0.00 98 1015.1
20260505084540 47 0 1.0 9.0 0.00 0.05 0.00 96 1014.6
20260505084022 47 311 2.0 9.0 0.00 0.05 0.00 98 1015.1
20260505083044 47 0 0.0 3.0 0.00 0.05 0.00 96 1014.6
20260505083025 47 16 0.0 3.0 0.00 0.05 0.00 98 1015.0
20260505082032 47 16 0.0 3.0 0.00 0.05 0.00 97 1015.1
20260505081545 47 16 1.0 3.0 0.00 0.05 0.00 96 1014.6
20260505081017 47 16 1.0 3.0 0.00 0.05 0.00 97 1015.2